FW7384 Weather Reports


time (UTC)temp
C
wind
direction
speed
KPH
gust
KPH
rain 1hr
cm
rain 24hr
cm
rain mn
cm
humidity
%
barometer
mb
20260507061003 5 162 4.8 9.7 0.00 0.00 0.00 69 1015.0
20260507060503 5 165 3.2 9.7 0.00 0.00 0.00 69 1014.9
20260507060003 5 178 1.6 4.8 0.00 0.00 0.00 70 1014.9
20260507055503 5 184 1.6 4.8 0.00 0.00 0.00 71 1015.2
20260507055003 4 169 1.6 4.8 0.00 0.00 0.00 72 1014.9
20260507054504 4 136 1.6 4.8 0.00 0.00 0.00 75 1015.0
20260507054212 4 124 1.6 4.8 0.00 0.00 0.00 76 1014.6
20260507053713 3 141 3.2 6.4 0.00 0.00 0.00 78 1014.8
20260507053004 3 138 3.2 6.4 0.00 0.00 0.00 79 1014.8
20260507052503 3 139 3.2 6.4 0.00 0.00 0.00 80 1014.8
20260507052212 3 145 1.6 4.8 0.00 0.00 0.00 81 1014.7
20260507051503 2 110 0.0 3.2 0.00 0.00 0.00 83 1014.7
20260507051003 1 87 1.6 3.2 0.00 0.00 0.00 80 1014.7
20260507050713 1 85 1.6 3.2 0.00 0.00 0.00 79 1014.8
20260507050214 1 79 1.6 3.2 0.00 0.00 0.00 77 1014.7
20260507045713 1 48 1.6 3.2 0.00 0.00 0.00 80 1014.8
20260507045003 0 45 1.6 3.2 0.00 0.00 0.00 81 1014.7
20260507044503 0 57 0.0 3.2 0.00 0.00 0.00 81 1014.5
20260507044004 0 56 0.0 3.2 0.00 0.00 0.00 84 1014.5
20260507043503 0 55 1.6 3.2 0.00 0.00 0.00 81 1014.5
20260507043214 0 54 1.6 3.2 0.00 0.00 0.00 83 1014.4
20260507042503 0 33 1.6 4.8 0.00 0.00 0.00 81 1014.5
20260507042214 0 30 1.6 4.8 0.00 0.00 0.00 82 1014.7
20260507041503 0 32 1.6 4.8 0.00 0.00 0.00 83 1014.5
20260507041003 0 47 1.6 4.8 0.00 0.00 0.00 81 1014.5
20260507040503 0 42 0.0 3.2 0.00 0.00 0.00 81 1014.6
20260507040003 0 19 0.0 3.2 0.00 0.00 0.00 82 1014.5
20260507035713 0 36 0.0 3.2 0.00 0.00 0.00 84 1014.5
20260507035003 -1 42 1.6 3.2 0.00 0.00 0.00 85 1014.4
20260507034503 -1 37 1.6 3.2 0.00 0.00 0.00 83 1014.3
20260507034003 -1 48 0.0 3.2 0.00 0.00 0.00 88 1014.3
20260507033503 -2 55 1.6 3.2 0.00 0.00 0.00 92 1014.3
20260507033003 -1 50 1.6 3.2 0.00 0.00 0.00 86 1014.2
20260507032503 -1 53 0.0 3.2 0.00 0.00 0.00 89 1014.3
20260507032003 -1 42 1.6 3.2 0.00 0.00 0.00 86 1014.2
20260507031503 -1 37 1.6 3.2 0.00 0.00 0.00 87 1014.1
20260507031003 -1 39 1.6 3.2 0.00 0.00 0.00 87 1014.1
20260507030503 -1 34 1.6 4.8 0.00 0.00 0.00 86 1014.1
20260507030003 -1 30 3.2 4.8 0.00 0.00 0.00 85 1014.1
20260507025712 -1 29 1.6 4.8 0.00 0.00 0.00 85 1014.0
20260507025003 -1 45 1.6 4.8 0.00 0.00 0.00 88 1013.9
20260507024503 -1 41 1.6 4.8 0.00 0.00 0.00 86 1014.1
20260507024003 -1 32 1.6 4.8 0.00 0.00 0.00 87 1013.8
20260507023503 -1 37 1.6 3.2 0.00 0.00 0.00 87 1014.0
20260507023003 -1 37 1.6 3.2 0.00 0.00 0.00 87 1013.9
20260507022503 -1 32 1.6 3.2 0.00 0.00 0.00 86 1014.0
20260507022003 -1 39 1.6 3.2 0.00 0.00 0.00 85 1013.8
20260507021503 -1 35 0.0 3.2 0.00 0.00 0.00 87 1013.9
20260507021003 -1 25 1.6 3.2 0.00 0.00 0.00 86 1014.0
20260507020503 -1 42 1.6 3.2 0.00 0.00 0.00 86 1013.7
20260507020003 -1 51 1.6 3.2 0.00 0.00 0.00 87 1013.8
20260507015503 -1 34 1.6 4.8 0.00 0.00 0.00 85 1013.9
20260507015003 0 26 3.2 4.8 0.00 0.00 0.00 84 1013.9
20260507014503 0 26 1.6 3.2 0.00 0.00 0.00 86 1013.6
20260507014003 0 30 3.2 3.2 0.00 0.00 0.00 85 1013.6
20260507013503 0 26 1.6 3.2 0.00 0.00 0.00 84 1013.6
20260507013004 0 46 0.0 3.2 0.00 0.00 0.00 83 1013.6
20260507012503 0 150 0.0 1.6 0.00 0.00 0.00 85 1013.7
20260507012003 -1 62 0.0 3.2 0.00 0.00 0.00 87 1013.5
20260507011503 0 46 1.6 3.2 0.00 0.00 0.00 86 1013.4
20260507011003 0 35 1.6 3.2 0.00 0.00 0.00 84 1013.6
20260507010503 0 36 1.6 3.2 0.00 0.00 0.00 84 1013.5
20260507010003 0 44 1.6 3.2 0.00 0.00 0.00 86 1013.4
20260507005503 0 53 0.0 3.2 0.00 0.00 0.00 84 1013.5
20260507005003 0 28 0.0 3.2 0.00 0.00 0.00 83 1013.2
20260507004503 0 6 1.6 4.8 0.00 0.00 0.00 85 1013.2
20260507004003 0 23 1.6 4.8 0.00 0.00 0.00 83 1013.4
20260507003503 0 39 1.6 3.2 0.00 0.00 0.00 83 1013.3
20260507003212 0 37 1.6 4.8 0.00 0.00 0.00 83 1013.4
20260507002503 0 39 1.6 4.8 0.00 0.00 0.00 82 1013.3
20260507002003 0 33 1.6 4.8 0.00 0.00 0.00 82 1013.4
20260507001503 0 45 1.6 4.8 0.00 0.00 0.00 82 1013.3
20260507001004 0 43 1.6 4.8 0.00 0.00 0.00 81 1013.2
20260507000503 0 41 1.6 4.8 0.00 0.00 0.00 81 1013.4
20260507000003 0 57 1.6 3.2 0.00 0.00 0.00 79 1013.2
20260506235713 1 46 1.6 3.2 0.00 0.00 0.00 79 1013.2
20260506235003 0 20 0.0 3.2 0.00 0.00 0.00 81 1013.2
20260506234503 0 48 1.6 4.8 0.00 0.00 0.00 84 1013.0
20260506234212 1 52 1.6 4.8 0.00 0.00 0.00 78 1013.0
20260506233713 1 56 1.6 4.8 0.00 0.00 0.00 77 1013.2
20260506233003 1 38 0.0 1.6 0.00 0.00 0.00 79 1013.2
20260506232503 1 21 0.0 3.2 0.00 0.00 0.00 77 1013.1
20260506232003 1 21 1.6 3.2 0.00 0.00 0.00 78 1012.8
20260506231503 1 25 1.6 3.2 0.00 0.00 0.00 77 1013.0
20260506231003 1 52 0.0 3.2 0.00 0.00 0.00 79 1012.9
20260506230503 1 60 1.6 3.2 0.00 0.00 0.00 77 1012.9
20260506230003 1 57 0.0 3.2 0.00 0.00 0.00 74 1013.0
20260506225503 1 43 1.6 4.8 0.00 0.00 0.00 76 1012.7
20260506225003 2 37 3.2 4.8 0.00 0.00 0.00 73 1012.7
20260506224503 2 34 1.6 4.8 0.00 0.00 0.00 72 1012.6
20260506224003 2 31 1.6 4.8 0.00 0.00 0.00 74 1012.6
20260506223503 2 25 3.2 4.8 0.00 0.00 0.00 74 1012.6
20260506223003 2 23 1.6 4.8 0.00 0.00 0.00 73 1012.6
20260506222713 2 21 1.6 4.8 0.00 0.00 0.00 73 1012.4
20260506222003 2 220 0.0 1.6 0.00 0.00 0.00 71 1012.5
20260506221504 3 189 0.0 3.2 0.00 0.00 0.00 70 1012.5
20260506221003 3 160 0.0 3.2 0.00 0.00 0.00 68 1012.4
20260506220503 3 49 1.6 4.8 0.00 0.00 0.00 68 1012.4
20260506220004 3 40 1.6 4.8 0.00 0.00 0.00 67 1012.2
20260506215503 3 51 1.6 4.8 0.00 0.00 0.00 66 1012.3
20260506215003 4 38 1.6 4.8 0.00 0.00 0.00 66 1012.2
20260506214503 4 28 3.2 4.8 0.00 0.00 0.00 66 1012.3
20260506214003 4 31 1.6 4.8 0.00 0.00 0.00 65 1012.3
20260506213503 5 47 1.6 3.2 0.00 0.00 0.00 63 1012.1
20260506213003 5 54 1.6 3.2 0.00 0.00 0.00 62 1012.2
20260506212712 5 52 1.6 3.2 0.00 0.00 0.00 61 1012.3
20260506212003 6 53 0.0 3.2 0.00 0.00 0.00 57 1012.1
20260506211503 6 77 0.0 3.2 0.00 0.00 0.00 54 1012.1
20260506211003 6 120 0.0 1.6 0.00 0.00 0.00 52 1012.0
20260506210503 6 142 0.0 1.6 0.00 0.00 0.00 51 1011.9
20260506210003 7 187 0.0 3.2 0.00 0.00 0.00 51 1012.0
20260506205503 7 188 1.6 3.2 0.00 0.00 0.00 52 1011.9
20260506205003 7 193 0.0 3.2 0.00 0.00 0.00 50 1011.9
20260506204503 8 219 0.0 4.8 0.00 0.00 0.00 47 1011.9
20260506204003 8 250 1.6 6.4 0.00 0.00 0.00 46 1011.9
20260506203503 8 253 1.6 6.4 0.00 0.00 0.00 46 1011.9
20260506203003 8 217 0.0 4.8 0.00 0.00 0.00 47 1011.7
20260506202503 8 201 0.0 3.2 0.00 0.00 0.00 48 1011.8
20260506202213 8 203 0.0 3.2 0.00 0.00 0.00 48 1011.7
20260506201714 8 212 0.0 3.2 0.00 0.00 0.00 47 1011.7
20260506201213 8 216 0.0 3.2 0.00 0.00 0.00 46 1011.7
20260506200503 8 220 0.0 1.6 0.00 0.00 0.00 47 1011.7
20260506200003 9 205 0.0 3.2 0.00 0.00 0.00 47 1011.6
20260506195714 9 192 0.0 3.2 0.00 0.00 0.00 47 1011.6
20260506195003 10 177 0.0 3.2 0.00 0.00 0.00 47 1011.7
20260506194503 10 169 1.6 4.8 0.00 0.00 0.00 46 1011.7
20260506194003 10 165 3.2 4.8 0.00 0.00 0.00 45 1011.5
20260506193503 10 178 1.6 6.4 0.00 0.00 0.00 47 1011.7
20260506193003 10 182 1.6 6.4 0.00 0.00 0.00 43 1011.6
20260506192714 10 178 1.6 6.4 0.00 0.00 0.00 41 1011.5
20260506192003 10 195 1.6 4.8 0.00 0.00 0.00 42 1011.5
20260506191503 10 212 1.6 4.8 0.00 0.00 0.00 43 1011.3
20260506191003 10 223 1.6 6.4 0.00 0.00 0.00 45 1011.4
20260506190503 10 195 3.2 9.7 0.00 0.00 0.00 50 1011.3
20260506190004 10 178 4.8 11.3 0.00 0.00 0.00 48 1011.3
20260506185503 10 186 3.2 11.3 0.00 0.00 0.00 54 1011.2
20260506185212 10 201 3.2 11.3 0.00 0.00 0.00 54 1011.1
20260506184503 10 199 4.8 11.3 0.00 0.00 0.00 54 1011.2
20260506184003 10 175 4.8 9.7 0.00 0.00 0.00 53 1011.0
20260506183503 10 165 6.4 11.3 0.00 0.00 0.00 52 1011.1
20260506183003 10 161 6.4 12.9 0.00 0.00 0.00 52 1010.9
20260506182503 11 162 4.8 12.9 0.00 0.00 0.00 52 1011.0
20260506182003 11 180 4.8 9.7 0.00 0.00 0.00 51 1010.8
20260506181713 11 179 4.8 8.0 0.00 0.00 0.00 51 1010.9
20260506181003 11 180 4.8 9.7 0.00 0.00 0.00 50 1010.9
20260506180713 11 167 6.4 16.1 0.00 0.00 0.00 50 1010.9
20260506180004 11 172 8.0 16.1 0.00 0.00 0.00 48 1010.8
20260506175503 11 185 6.4 12.9 0.00 0.00 0.00 47 1010.7
20260506175003 11 178 6.4 16.1 0.00 0.00 0.00 46 1010.7
20260506174503 11 179 8.0 16.1 0.00 0.00 0.00 45 1010.8
20260506174003 11 180 8.0 16.1 0.00 0.00 0.00 43 1010.6
20260506173503 11 174 6.4 16.1 0.00 0.00 0.00 42 1010.6
20260506173003 11 170 6.4 14.5 0.00 0.00 0.00 40 1010.7
20260506172503 12 165 4.8 14.5 0.00 0.00 0.00 39 1010.5
20260506172003 12 160 3.2 6.4 0.00 0.00 0.00 36 1010.5
20260506171503 12 165 3.2 6.4 0.00 0.00 0.00 36 1010.5
20260506171003 12 144 3.2 6.4 0.00 0.00 0.00 36 1010.7
20260506170503 12 137 3.2 6.4 0.00 0.00 0.00 35 1010.7
20260506170003 12 159 3.2 6.4 0.00 0.00 0.00 34 1010.5
20260506165503 12 166 3.2 9.7 0.00 0.00 0.00 34 1010.5
20260506165003 12 179 3.2 9.7 0.00 0.00 0.00 34 1010.2
20260506164503 12 177 4.8 8.0 0.00 0.00 0.00 34 1010.3
20260506164003 12 178 4.8 8.0 0.00 0.00 0.00 33 1010.5
20260506163503 12 176 4.8 12.9 0.00 0.00 0.00 33 1010.5
20260506163003 12 172 6.4 12.9 0.00 0.00 0.00 32 1010.3
20260506162503 13 151 6.4 12.9 0.00 0.00 0.00 31 1010.5
20260506162213 13 146 4.8 12.9 0.00 0.00 0.00 31 1010.3
20260506161503 13 162 8.0 20.9 0.00 0.00 0.00 31 1010.5
20260506161003 13 152 6.4 20.9 0.00 0.00 0.00 31 1010.5
20260506160503 13 136 6.4 17.7 0.00 0.00 0.00 31 1010.3
20260506160003 13 138 8.0 19.3 0.00 0.00 0.00 30 1010.6
20260506155712 13 141 9.7 19.3 0.00 0.00 0.00 30 1010.2
20260506155003 13 160 9.7 16.1 0.00 0.00 0.00 29 1010.2
20260506154503 14 179 6.4 12.9 0.00 0.00 0.00 28 1010.6
20260506154003 14 196 6.4 12.9 0.00 0.00 0.00 28 1010.5
20260506153503 14 197 4.8 12.9 0.00 0.00 0.00 27 1010.6
20260506153003 13 134 3.2 8.0 0.00 0.00 0.00 28 1010.5
20260506152503 13 51 1.6 8.0 0.00 0.00 0.00 26 1010.6
20260506152213 13 300 1.6 8.0 0.00 0.00 0.00 27 1010.8
20260506151714 13 210 3.2 9.7 0.00 0.00 0.00 25 1010.5
20260506151003 13 189 4.8 9.7 0.00 0.00 0.00 26 1010.3
20260506150503 12 180 4.8 9.7 0.00 0.00 0.00 29 1010.7
20260506150003 12 173 4.8 6.4 0.00 0.00 0.00 30 1010.5
20260506145503 12 183 3.2 6.4 0.00 0.00 0.00 29 1010.5
20260506145003 12 203 3.2 6.4 0.00 0.00 0.00 29 1010.7
20260506144503 13 198 3.2 4.8 0.00 0.00 0.00 27 1010.7
20260506144003 13 169 3.2 6.4 0.00 0.00 0.00 27 1010.6
20260506143503 13 152 4.8 6.4 0.00 0.00 0.00 27 1010.5
20260506143003 13 161 3.2 6.4 0.00 0.00 0.00 26 1010.6
20260506142714 13 162 3.2 9.7 0.00 0.00 0.00 25 1010.7
20260506142003 13 192 6.4 9.7 0.00 0.00 0.00 25 1010.7
20260506141503 14 201 4.8 11.3 0.00 0.00 0.00 25 1010.7
20260506141003 14 197 4.8 11.3 0.00 0.00 0.00 25 1010.8
20260506140503 15 191 4.8 12.9 0.00 0.00 0.00 25 1010.7
20260506140003 15 174 3.2 12.9 0.00 0.00 0.00 24 1010.6
20260506135503 15 186 3.2 9.7 0.00 0.00 0.00 24 1010.7
20260506135003 14 2 6.4 16.1 0.00 0.00 0.00 25 1010.7
20260506134503 13 26 4.8 16.1 0.00 0.00 0.00 24 1010.6
20260506134212 14 158 4.8 16.1 0.00 0.00 0.00 23 1010.6
20260506133503 13 208 4.8 11.3 0.00 0.00 0.00 23 1010.7
20260506133003 13 212 6.4 11.3 0.00 0.00 0.00 24 1010.7
20260506132503 13 244 6.4 9.7 0.00 0.00 0.00 24 1010.8
20260506132003 12 282 4.8 8.0 0.00 0.00 0.00 23 1010.6
20260506131503 13 181 4.8 12.9 0.00 0.00 0.00 22 1010.9
20260506131212 13 166 4.8 12.9 0.00 0.00 0.00 22 1010.9
20260506130503 13 147 3.2 12.9 0.00 0.00 0.00 24 1010.9
20260506130003 12 308 3.2 9.7 0.00 0.00 0.00 26 1010.9
20260506125503 12 287 3.2 9.7 0.00 0.00 0.00 24 1011.0
20260506125003 13 262 3.2 11.3 0.00 0.00 0.00 24 1011.0
20260506124503 13 228 4.8 12.9 0.00 0.00 0.00 24 1011.0
20260506124003 13 194 4.8 12.9 0.00 0.00 0.00 24 1010.9
20260506123503 13 136 8.0 16.1 0.00 0.00 0.00 25 1011.1
20260506123003 12 123 9.7 17.7 0.00 0.00 0.00 26 1011.1
20260506122503 12 127 8.0 17.7 0.00 0.00 0.00 25 1011.2
20260506122003 13 127 6.4 17.7 0.00 0.00 0.00 24 1011.1
20260506121503 12 225 4.8 9.7 0.00 0.00 0.00 24 1011.2
20260506121003 12 264 4.8 11.3 0.00 0.00 0.00 24 1011.3
20260506120503 12 211 4.8 11.3 0.00 0.00 0.00 24 1011.3
20260506120003 13 158 4.8 11.3 0.00 0.00 0.00 23 1011.2
20260506115503 13 146 4.8 14.5 0.00 0.00 0.00 23 1011.4
20260506115003 12 99 4.8 16.1 0.00 0.00 0.00 25 1011.3
20260506114503 12 92 6.4 16.1 0.00 0.00 0.00 25 1011.4
20260506114003 12 115 4.8 9.7 0.00 0.00 0.00 25 1011.4
20260506113503 12 328 3.2 9.7 0.00 0.00 0.00 24 1011.3
20260506113003 12 109 4.8 17.7 0.00 0.00 0.00 25 1011.6
20260506112503 12 126 8.0 19.3 0.00 0.00 0.00 25 1011.6
20260506112003 12 117 6.4 19.3 0.00 0.00 0.00 25 1011.6
20260506111503 11 81 6.4 14.5 0.00 0.00 0.00 27 1011.6
20260506111003 11 86 6.4 14.5 0.00 0.00 0.00 26 1011.8
20260506110712 11 96 8.0 17.7 0.00 0.00 0.00 25 1011.7
20260506110213 12 119 4.8 17.7 0.00 0.00 0.00 24 1011.6
20260506105503 11 114 4.8 12.9 0.00 0.00 0.00 24 1011.7
20260506105003 12 99 4.8 12.9 0.00 0.00 0.00 24 1011.6
20260506104712 11 3 4.8 11.3 0.00 0.00 0.00 24 1011.8
20260506104004 11 25 4.8 11.3 0.00 0.00 0.00 25 1011.7
20260506103712 11 87 4.8 9.7 0.00 0.00 0.00 25 1011.8
20260506103003 11 180 6.4 14.5 0.00 0.00 0.00 24 1011.8
20260506102503 11 168 6.4 19.3 0.00 0.00 0.00 25 1012.0
20260506102003 11 153 6.4 19.3 0.00 0.00 0.00 26 1011.9
20260506101503 11 145 6.4 19.3 0.00 0.00 0.00 26 1012.1
20260506101213 11 137 4.8 14.5 0.00 0.00 0.00 24 1012.1
20260506100503 11 131 6.4 16.1 0.00 0.00 0.00 26 1012.2
20260506100213 11 137 6.4 16.1 0.00 0.00 0.00 26 1012.1
20260506095503 11 142 6.4 16.1 0.00 0.00 0.00 25 1012.3
20260506095003 11 184 4.8 16.1 0.00 0.00 0.00 24 1012.1
20260506094503 10 165 6.4 17.7 0.00 0.00 0.00 26 1012.1
20260506094003 10 153 9.7 19.3 0.00 0.00 0.00 26 1012.3
20260506093503 10 164 8.0 19.3 0.00 0.00 0.00 26 1012.4
20260506093003 10 191 4.8 11.3 0.00 0.00 0.00 26 1012.3
20260506092503 10 143 4.8 17.7 0.00 0.00 0.00 26 1012.5
20260506092213 10 119 6.4 17.7 0.00 0.00 0.00 25 1012.4
20260506091714 10 119 6.4 17.7 0.00 0.00 0.00 25 1012.5
20260506091003 10 103 4.8 17.7 0.00 0.00 0.00 25 1012.5
20260506090503 10 93 6.4 17.7 0.00 0.00 0.00 25 1012.4
20260506090003 10 90 6.4 12.9 0.00 0.00 0.00 25 1012.4
20260506085503 10 82 6.4 14.5 0.00 0.00 0.00 23 1012.3
20260506085003 10 99 6.4 16.1 0.00 0.00 0.00 24 1012.6
20260506084503 10 98 6.4 16.1 0.00 0.00 0.00 24 1012.6
20260506084004 10 95 6.4 14.5 0.00 0.00 0.00 25 1012.6
20260506083503 9 98 6.4 14.5 0.00 0.00 0.00 26 1012.5
20260506083003 9 111 9.7 17.7 0.00 0.00 0.00 25 1012.7
20260506082503 9 109 11.3 17.7 0.00 0.00 0.00 25 1012.7
20260506082003 9 108 8.0 16.1 0.00 0.00 0.00 26 1012.8
20260506081503 9 101 6.4 17.7 0.00 0.00 0.00 27 1012.8
20260506081003 9 67 6.4 17.7 0.00 0.00 0.00 27 1012.9
20260506080503 9 75 8.0 17.7 0.00 0.00 0.00 28 1012.7
20260506080212 8 96 8.0 16.1 0.00 0.00 0.00 29 1012.8
20260506073214 9 112 6.4 17.7 0.00 0.00 0.00 26 1013.0
20260506072503 8 96 8.0 17.7 0.00 0.00 0.00 26 1012.9
20260506072003 8 101 9.7 17.7 0.00 0.00 0.00 26 1012.9
20260506071713 8 83 8.0 17.7 0.00 0.00 0.00 26 1012.7
20260506071003 8 21 6.4 16.1 0.00 0.00 0.00 27 1012.7
20260506070503 8 46 6.4 14.5 0.00 0.00 0.00 29 1012.7
20260506062503 7 47 4.8 12.9 0.00 0.00 0.00 36 1012.7
20260506062003 7 31 4.8 14.5 0.00 0.00 0.00 37 1012.7
20260506061713 7 21 6.4 14.5 0.00 0.00 0.00 37 1012.8